[[{"header":{"parameterUnit":"m.s-1","parameterCategory":1,"la1":30.2992,"la2":30.254,"lo1":-89.0895,"lo2":-89.0443,"dy":0.0025,"dx":0.0025,"nx":19,"ny":19,"refTime":"2026-03-16T21:00:00:Z","depth":0,"parameterNumber":2,"parameterNumberName":"U-component_of_WINDS"},"data":[0,0,0,0.0388,0.0387,0.037,0.037,0.0342,0.0341,0,0,0,0,0,0,0,0,0,0,0,0.039,0.039,0.0388,0.0387,0.037,0.037,0.0342,0.0341,0,0,0,0,0,0,0,0,0,0,0,0.039,0.039,0.0389,0.0387,0.037,0.037,0.0342,0.0357,0,0,0,0,0,0,0,0,0,0,0.0375,0.0374,0.039,0.0389,0.0387,0.037,0.037,0.0358,0.0356,0.0347,0,0.034,0,0.034,0.0339,0.0339,0,0,0,0.0389,0.0376,0.0374,0.0389,0.0387,0.037,0.0378,0.0357,0.0355,0.0345,0.0339,0.0338,0.034,0.0339,0.0339,0.0285,0.0285,0,0,0.039,0.0385,0.0375,0.0372,0.0375,0.0379,0.0377,0.0356,0.0349,0.0339,0.0338,0.0339,0.0339,0.0339,0.0286,0.0285,0,0,0,0.0391,0.0385,0.0384,0.0373,0.0371,0.0378,0.0377,0.035,0.035,0.0338,0.0339,0.0339,0.0338,0.0286,0.0286,0.0264,0,0,0,0.0392,0.0386,0.0385,0.0381,0.0371,0.036,0.0371,0.0351,0.0349,0.0339,0.0339,0.0338,0.0287,0.0286,0.0265,0.0254,0,0,0,0.0392,0.0386,0.0383,0.0381,0.0374,0.036,0.0359,0.0351,0.035,0.0339,0.0338,0.0287,0.0286,0.0267,0.0256,0.0238,0,0,0,0.039,0.0364,0.0383,0.0354,0.0374,0.0348,0.036,0.034,0.0329,0.0338,0.0286,0.0286,0.0267,0.0257,0.024,0.0222,0.0214,0,0,0.0354,0.0359,0.0343,0.0359,0.0329,0.0351,0.0317,0.0311,0.0314,0.0295,0.0293,0.0265,0.0256,0.0239,0.0175,0.0169,0,0,0,0.0329,0.0317,0.031,0.03,0.0295,0.029,0.029,0.0287,0.0272,0.0303,0.0254,0.0249,0.0239,0.0231,0.0226,0.0217,0.0282,0.0282,0.0282,0.027,0.0276,0.0249,0.0254,0.0243,0.0244,0.0236,0.0233,0.0242,0.023,0.0224,0.0185,0.0175,0.0171,0.0162,0.0216,0.0216,0.0216,0.0216,0.0217,0.02,0.0214,0.0193,0.02,0.0182,0.0181,0.0189,0.0172,0.019,0.0181,0.0199,0.0164,0.0156,0.0214,0.0215,0.0215,0.0215,0.0215,0.0177,0.0171,0.0169,0.0155,0.0143,0.0149,0.0133,0.014,0.0146,0.0138,0.0132,0.0132,0.0133,0.0135,0.0135,0.0135,0.0135,0.0135,0.0134,0.0137,0.0136,0.0122,0.0116,0.011,0.0104,0.0105,0.0099,0.0095,0.0101,0.0101,0.0111,0.016,0.0172,0.0132,0.0133,0.0133,0.0133,0.0133,0.0078,0.0093,0.0071,0.0066,0.0059,0.0047,0.0057,0.0045,0.0042,0.0034,0.0046,0.0082,0.0087,0.0091,0.0101,0.0045,0.0045,0.0045,0.0045,0.0045,0.0049,0.0028,0.0019,0.0011,0.0018,-0.0007,-0.0006,-0.0003,-0.0005,0.0005,0.0019,0.0023,0.0026,0.0031,0.004,-0.0029,-0.003,-0.003,0.0009,0.0013,-0.001,-0.0006,-0.001,-0.0014,-0.0037,-0.0049,-0.0042,-0.0032,-0.0006,-0.0003,0.002,0.0027,0.0035,0.0044,0.0061,0,0]},{"header":{"parameterUnit":"m.s-1","parameterCategory":1,"la1":30.2992,"la2":30.254,"lo1":-89.0895,"lo2":-89.0443,"dy":0.0025,"dx":0.0025,"nx":19,"ny":19,"refTime":"2026-03-16T21:00:00:Z","depth":0,"parameterNumber":3,"parameterNumberName":"V-component_of_WINDS"},"data":[0,0,0,-5.7661,-5.7663,-5.776,-5.776,-5.7895,-5.7896,0,0,0,0,0,0,0,0,0,0,0,-5.7642,-5.7643,-5.7661,-5.7664,-5.776,-5.776,-5.7895,-5.7896,0,0,0,0,0,0,0,0,0,0,0,-5.7641,-5.7642,-5.7644,-5.7664,-5.776,-5.776,-5.7894,-5.7817,0,0,0,0,0,0,0,0,0,0,-5.7721,-5.7712,-5.7642,-5.7644,-5.7665,-5.776,-5.776,-5.7813,-5.7822,-5.7857,0,-5.7892,0,-5.7897,-5.7906,-5.7907,0,0,0,-5.7656,-5.7705,-5.7723,-5.7644,-5.7666,-5.7759,-5.7714,-5.7818,-5.7828,-5.7869,-5.7894,-5.7899,-5.7899,-5.7907,-5.7908,-5.8141,-5.8142,0,0,-5.7651,-5.7663,-5.7717,-5.773,-5.7718,-5.7711,-5.7717,-5.7824,-5.7851,-5.7895,-5.7902,-5.7901,-5.7908,-5.7909,-5.814,-5.8141,0,0,0,-5.7641,-5.766,-5.7675,-5.7725,-5.7742,-5.7714,-5.7721,-5.7846,-5.7851,-5.7903,-5.7903,-5.7909,-5.7911,-5.8138,-5.814,-5.8225,0,0,0,-5.7637,-5.7654,-5.7673,-5.7681,-5.774,-5.7796,-5.7742,-5.7843,-5.7855,-5.7902,-5.7909,-5.7912,-5.8136,-5.8139,-5.8219,-5.8263,0,0,0,-5.7632,-5.7653,-5.767,-5.7682,-5.7724,-5.7794,-5.7804,-5.7845,-5.7855,-5.7907,-5.7913,-5.8135,-5.8139,-5.8214,-5.8255,-5.833,0,0,0,-5.763,-5.7742,-5.7672,-5.7797,-5.7723,-5.7846,-5.7803,-5.7893,-5.7947,-5.791,-5.8137,-5.814,-5.8213,-5.8249,-5.8324,-5.8396,-5.8427,0,0,-5.7778,-5.776,-5.7833,-5.7773,-5.7912,-5.783,-5.7981,-5.8017,-5.8009,-5.8097,-5.8103,-5.8221,-5.8254,-5.8329,-5.8593,-5.8618,0,0,0,-5.7884,-5.7937,-5.7971,-5.8025,-5.8057,-5.8089,-5.8102,-5.8115,-5.819,-5.8058,-5.8267,-5.8286,-5.833,-5.8363,-5.8384,-5.8421,-5.8156,-5.8155,-5.8155,-5.8111,-5.8098,-5.8218,-5.8217,-5.8269,-5.8283,-5.8324,-5.8344,-5.8313,-5.8363,-5.8389,-5.8552,-5.8592,-5.8607,-5.8646,-5.8425,-5.8425,-5.8425,-5.8425,-5.8329,-5.8402,-5.836,-5.8462,-5.8447,-5.8531,-5.8548,-5.8524,-5.86,-5.853,-5.8567,-5.8494,-5.8635,-5.8668,-5.8432,-5.8431,-5.843,-5.8429,-5.8429,-5.8477,-5.851,-5.8527,-5.8605,-5.8666,-5.8659,-5.8736,-5.8717,-5.8701,-5.8738,-5.8764,-5.8763,-5.8761,-5.8752,-5.8752,-5.8753,-5.8753,-5.8754,-5.8754,-5.8625,-5.8641,-5.8709,-5.8755,-5.8788,-5.8829,-5.8845,-5.8876,-5.8906,-5.8887,-5.8887,-5.8852,-5.8651,-5.8602,-5.8763,-5.8761,-5.876,-5.8759,-5.8759,-5.8853,-5.8799,-5.8904,-5.8938,-5.899,-5.9053,-5.903,-5.9096,-5.9119,-5.9158,-5.9115,-5.8968,-5.8948,-5.8931,-5.8891,-5.9116,-5.9116,-5.9116,-5.9116,-5.898,-5.8968,-5.9072,-5.9128,-5.9179,-5.917,-5.9288,-5.9301,-5.9305,-5.9319,-5.9283,-5.9227,-5.9211,-5.92,-5.9178,-5.9139,-5.9423,-5.9424,-5.9424,-5.912,-5.9113,-5.9218,-5.9224,-5.9265,-5.9299,-5.941,-5.9474,-5.9468,-5.9436,-5.933,-5.9317,-5.9226,-5.9197,-5.9164,-5.9129,-5.9058,0,0]}]]